This is the latest recevied weather packets stored in our database for station/object DL9BGG-13. If no packets are shown the sender has not sent any weather packets the latest 1 day(s).
| Time | Temp. | Humidity | Pressure | Rain* | Wind** | Luminosity | Snow |
|---|---|---|---|---|---|---|---|
| 1778003869 | 10.56° C | 82% | 1056 hPa | 0 mm | 4.02 m/s, 0° | - | - |
| 1778003802 | 10.56° C | 82% | 1056 hPa | 0 mm | 2.24 m/s, 22° | - | - |
| 1778003728 | 10.56° C | 82% | 1056.1 hPa | 0 mm | 3.13 m/s, 0° | - | - |
| 1778003654 | 10.56° C | 82% | 1056.1 hPa | 0 mm | 4.92 m/s, 0° | - | - |
| 1778003580 | 10.56° C | 82% | 1056 hPa | 0 mm | 2.68 m/s, 22° | - | - |
| 1778003498 | 10.56° C | 82% | 1056 hPa | 0 mm | 1.79 m/s, 0° | - | - |
| 1778003426 | 10.56° C | 82% | 1056 hPa | 0 mm | 4.02 m/s, 22° | - | - |
| 1778003352 | 10.56° C | 82% | 1055.9 hPa | 0 mm | 4.47 m/s, 0° | - | - |
| 1778003279 | 10.56° C | 81% | 1056 hPa | 0 mm | 2.68 m/s, 337° | - | - |
| 1778003198 | 10.56° C | 81% | 1056 hPa | 0 mm | 3.58 m/s, 22° | - | - |
| 1778003118 | 10.56° C | 81% | 1056.1 hPa | 0 mm | 1.79 m/s, 22° | - | - |
| 1778003048 | 10.56° C | 81% | 1056 hPa | 0 mm | 2.68 m/s, 0° | - | - |
| 1778002851 | 10.56° C | 81% | 1056.1 hPa | 0 mm | 0.89 m/s, 0° | - | - |
| 1778002776 | 10.56° C | 81% | 1056 hPa | 0 mm | 3.58 m/s, 22° | - | - |
| 1778002694 | 10.56° C | 81% | 1056.1 hPa | 0 mm | 2.68 m/s, 22° | - | - |
| 1778002622 | 10.56° C | 81% | 1056.1 hPa | 0 mm | 3.13 m/s, 22° | - | - |
| 1778002549 | 10.56° C | 81% | 1056 hPa | 0 mm | 5.36 m/s, 90° | - | - |
| 1778002483 | 10.56° C | 81% | 1056.1 hPa | 0 mm | 5.81 m/s, 0° | - | - |
| 1778002410 | 10.56° C | 82% | 1056.1 hPa | 0 mm | 2.68 m/s, 45° | - | - |
| 1778002345 | 10.56° C | 82% | 1056.1 hPa | 0 mm | 2.24 m/s, 337° | - | - |
| 1778002274 | 10.56° C | 82% | 1056.1 hPa | 0 mm | 2.68 m/s, 22° | - | - |
| 1778002205 | 10.56° C | 82% | 1056.1 hPa | 0 mm | 1.79 m/s, 45° | - | - |
| 1778002126 | 10.56° C | 82% | 1056.1 hPa | 0 mm | 4.47 m/s, 0° | - | - |
| 1778002052 | 10.56° C | 82% | 1056.1 hPa | 0 mm | 3.13 m/s, 337° | - | - |
| 1778001963 | 10.56° C | 82% | 1056.1 hPa | 0 mm | 4.47 m/s, 45° | - | - |
* Rain latest hour (hover to see other rain measurements)
** Current wind speed in m/s (hover to see current wind gust speed)